Regional Weather Roundup
Issued by NWS Grand Forks, ND

Home | Current Version | Previous Version | Graphics & Text | Print | Product List | Glossary On
Versions: 1 2 3 4 5 6 7 8 9 10 11 12 13 14 15 16 17 18 19 20 21 22 23 24 25 26 27 28 29 30 31 32 33 34 35 36 37 38 39 40 41 42 43 44 45 46 47 48 49 50
000
ASUS43 KFGF 260510
RWRFGF
PRAIRIE TO PINES  WEATHER ROUNDUP
NATIONAL WEATHER SERVICE EASTERN NORTH DAKOTA/GRAND FORKS ND
1200 AM CDT WED JUL 26 2017

 **SATELLITE DATA USED TO AUGMENT SKY COVER AT AUTOMATED STATIONS**
 *****  WEATHER ACROSS EASTERN NORTH DAKOTA  *****

CITY           SKY/WX    TMP DP  RH WIND       PRES   REMARKS
GRAND FORKS    FAIR      64  61  90 S7        29.97R
GRAND FRKS AFB FAIR      62  58  89 SW7       29.98R
DEVILS LAKE    FAIR      67  61  81 W5        30.01R
FARGO          FAIR      71  62  73 W3        30.01R
WAHPETON ARPT  FAIR      70  66  88 NW7       29.98F
$$

 ***** WEATHER ACROSS CENTRAL AND WESTERN NORTH DAKOTA  *****

CITY           SKY/WX    TMP DP  RH WIND       PRES   REMARKS
BISMARCK       FAIR      71  54  54 E6        30.05R
MINOT          FAIR      69  55  60 W8        30.02R
JAMESTOWN      FAIR      65  58  78 S5        30.05R
MINOT AFB      FAIR      64  55  73 NW7       30.01R
GARRISON         N/A     65  55  70 CALM      30.03R
WILLISTON      FAIR      69  46  43 N7        30.06R
DICKINSON      FAIR      71  48  43 NE6       30.06R
HETTINGER      CLOUDY    70  51  51 SE5       30.11R
$$

 *****  OTHER AIRPORT OBSERVATIONS IN OUR AREA  *****

CITY           SKY/WX    TMP DP  RH WIND       PRES   REMARKS
WALHALLA       NOT AVBL
GRAFTON AIRPOR FAIR      63  59  88 SW6       29.98R
VALLEY CITY AR FAIR      64  64 100 S5        30.06R
CANDO          NOT AVBL
CAVALIER APRT  FAIR      63  59  88 W5        29.94R
GWINNER        CLEAR     68  64  88 NW7       30.01F
SHEYENNE NWR     N/A     67  64  90 CALM      29.95S
ROLLA            N/A     59  57  94 NW7       30.01R
 ***** THE ABOVE OBSERVATIONS ARE NON NWS ARE NOT QUALITY
       CONTROLLED AND MAY MIS-REPORT RAIN FOR SNOW...
$$

  *****  WEATHER ACROSS NORTHERN MINNESOTA  *****

CITY           SKY/WX    TMP DP  RH WIND       PRES   REMARKS
FLAG ISLAND    FAIR      66  57  72 W9        29.89R
WARROAD        FAIR      63  59  88 SW7       29.94R
ROSEAU         FAIR      66  59  77 SW3       29.94R
HALLOCK        FAIR      63  59  88 W5        29.93S
THF RVR FALLS  FAIR      62  58  86 SW8       30.00R
BAUDETTE       FAIR      64  58  80 W7        29.93R
WASKISH        FAIR      70  63  78 W8        29.96R
CROOKSTON      FAIR      64  57  77 SW3       30.00R
STEPHEN NDAWN    N/A     63  57  82 SW3         N/A
GREENBUSH NDAW   N/A     61  57  88 SW3         N/A
$$
  *****  WEATHER ACROSS CENTRAL AND WEST MINNESOTA  *****

CITY           SKY/WX    TMP DP  RH WIND       PRES   REMARKS
FOSSTON        FAIR      64  57  77 W6        30.01R
BEMIDJI        FAIR      68  65  90 W7        29.99R
PARK RAPIDS    FAIR      69  67  93 W7        30.00R
ELBOW LAKE     FAIR      71  70  98 CALM      29.99S
WADENA         FAIR      70  70 100 NW5       29.99F
DETROIT LAKES  FAIR      70  66  88 W5        30.03R
MOORHEAD       FAIR      64  63  94 CALM      30.02R
FERGUS FALLS   FAIR      70  70 100 N5        29.98F
MORRIS MN      FAIR      72  70  94 NW5       29.97S
STAPLES        FAIR      70  66  88 NW5       29.99S
$$
  *****  WEATHER ELSEWHERE ACROSS MINNESOTA  *****

CITY           SKY/WX    TMP DP  RH WIND       PRES   REMARKS
DULUTH         CLOUDY    70  68  93 SW13      29.97R
INTRNTL FALLS  FAIR      63  58  83 W6        29.91R
ELY            MOCLDY    70  66  88 SW12      29.92R
CLOQUET        LGT RAIN  72  66  83 SW6       29.97R
WHEATON        FAIR      72  68  88 CALM      29.99F
BRAINERD       FAIR      73  68  84 W5        29.97F
HIBBING        FAIR      66  66 100 W5        29.94R
ALEXANDRIA     FAIR      72  70  93 NW5       30.00F
SAINT CLOUD    FAIR      73  70  90 NW6       29.96F
MINNEAPOLIS    CLOUDY    78  72  81 W7        29.98R
$$

  *****  WEATHER ACROSS SOUTH DAKOTA  *****

CITY           SKY/WX    TMP DP  RH WIND       PRES   REMARKS
SIOUX FALLS    RAIN      73  73 100 N12       30.04R
BROOKINGS      RAIN      71  69  93 W6        30.01R
WATERTOWN      MOCLDY    71  67  87 NW3       30.02R
HURON          LGT RAIN  71  70  96 S10       29.96F
SISSETON         N/A     73  72  96 S7        29.99R
ABERDEEN       CLOUDY    74  71  91 SE5       30.02R
MITCHELL       LGT RAIN  71  70  96 SE12      30.01F
PIERRE         FAIR      75  64  68 NE13      29.97S
MOBRIDGE       FAIR      75  63  66 NE8       30.01
RAPID CITY     FAIR      72  54  53 N12       30.11F
$$

  *****  SOME WEATHER IN NEARBY STATES *****

CITY           SKY/WX    TMP DP  RH WIND       PRES   REMARKS
GLASGOW MT     FAIR      65  45  48 NE12      30.06R
GREAT FALLS MT FAIR      71  37  28 NE15      30.08R
CHEYENNE WY    FAIR      65  54  67 N20G26    30.24R
SCOTTSBLUFF NE MOCLDY    78  56  46 N16G24    30.06R
OMAHA NE       CLOUDY    84  72  67 SE15      29.97F
DES MOINES IA  CLOUDY    80  73  79 SE8       30.02R
DAVENPORT IA   FAIR      72  67  84 SE7       30.09F
CHICAGO IL     FAIR      70  58  65 S8        30.11F
EAU CLAIRE WI  FAIR      72  67  84 S6        30.00R
LA CROSSE WI   FAIR      77  69  76 S16       29.99R
$$

  *****  SOME NATIONAL WEATHER *****

CITY           SKY/WX    TMP DP  RH WIND       PRES   REMARKS
LA GUARDIA NY  CLOUDY    67  59  75 NE9       30.22S
RALEIGH NC     FAIR      78  72  81 E9        30.13S
ATLANTA GA     FAIR      77  72  84 CALM      30.11F
NEW ORLEANS LA FAIR      81  75  82 CALM      30.12F
OKLAHOMA CITY  FAIR      81  72  74 S10       30.03F
ALBUQUERQUE NM FAIR      79  55  43 CALM      30.21S
SALT LAKE CITY FAIR      78  60  53 SE9       30.10R
LOS ANGELES CA FAIR      69  62  78 W8        29.98R
BOISE ID       FAIR      82  50  32 W5        29.94R
SEATTLE WA     FAIR      73  51  46 N9        30.00R
$$

*** WEATHER ACROSS MANITOBA...SASKATCHEWAN AND ONTARIO ***
                ***ONTARIO***

CITY           SKY/WX    TMP DP  RH WIND       PRES   REMARKS
GERALDTON      TSTM      61  55  82 S14G25    29.81F
THUNDER BAY    CLOUDY    70  64  83 W9        29.85F
SIOUX LOOKOUT  MOCLDY    66  57  72 W12G17    29.82S
TORONTO        CLEAR     64  55  72 SE3       30.20F
BIG TROUT LK   CLOUDY    61  61 100 W9        29.59S
PICKLE LAKE    NOT AVBL
DRYDEN         CLEAR     64  57  77 W10       29.85S
KENORA         PTCLDY    64  57  77 W7        29.90R
$$
                *** MANITOBA***

CITY           SKY/WX    TMP DP  RH WIND       PRES   REMARKS
BRANDON        CLEAR     59  57  94 W7        29.97S
DAUPHIN        PTCLDY    63  59  88 W8        29.94R
ISLAND LAKE    NOT AVBL
PILOT MOUND      N/A     59  55  88 W3          N/A
THE PAS        MOCLDY    66  57  72 W8        29.91R
THOMPSON       MOCLDY    64  59  82 NW7       29.75R
WINNIPEG       PTCLDY    63  59  88 W8        29.90R
LYNN LAKE      CLOUDY    64  55  72 W6        29.82R
CHURCHILL      MOCLDY    50  50 100 NW6       29.67R FOG
GILLAM         CLOUDY    63  59  88 NW8       29.67R
$$
                ***SASKATCHEWAN***

CITY           SKY/WX    TMP DP  RH WIND       PRES   REMARKS
ESTEVAN        PTCLDY    55  54  94 NW2       30.06R
KINDERSLEY     MOCLDY    57  52  82 E5        30.08S
LLOYDMINSTER   CLEAR     55  52  88 S7        30.06S
PRINCE ALBERT  PTCLDY    57  54  88 W5        30.03R
REGINA         CLEAR     61  52  72 N5        30.07R
YORKTON        CLEAR     63  57  82 W10       30.02R
N. BATTLEFORD  CLEAR     55  52  88 CALM      30.08R
LA RONGE       PTCLDY    61  54  77 W3        29.97S
SASKATOON      PTCLDY    57  52  82 W7        30.07R
SWIFT CURRENT  CLEAR     57  45  62 SE6       30.10S
$$
NOTE: THESE ARE AUTOMATED STATIONS WITH LIMITED QUALITY CONTROL
      "FAIR" INDICATES FEW OR NO CLOUDS BELOW 12,000 FEET WITH NO
      SIGNIFICANT WEATHER AND/OR OBSTRUCTIONS TO VISIBILITY.
      SKY/WX - SKY CONDITION AND SIGNIFICANT WEATHER.
      TMP - AIR TEMPERATURE.    DP   - DEWPOINT TEMPERATURE.
      RH  - RELATIVE HUMIDITY.  PRES - PRESSURE.
      HX  - HEAT INDEX.         WCI  - WIND CHILL INDEX.
$



USA.gov is the U.S. government's official web portal to all federal, state and local government web resources and services.